星链-4445 (STARLINK-4445 )

导读

STARLINK-4445是美国太空探索技术公司星链星座的卫星,于2022年8月12日发射升空。星链旨在构建全球卫星互联网通信系统,该卫星加入星座后,提升了星座全球覆盖密度,为地面提供低延迟宽带网络服务,助力偏远地区网络接入,也承载着商业航天通信服务拓展的战略意义。

Basic Information
目录编号:
53474
目录名称:
STARLINK-4445
国际标识:
2022-099K
轨道中心:
EARTH
卫星名称:
星链-4445
卫星全名:
星链-4445 (STARLINK-4445 )
卫星状态:
在轨 (已飞行1492 天)
发射日期:
2022-08-12 UTC
国别 :
美国 (US)
星等 :
--
This satellite is enrolled in the Space Conjunction Data Service (SCDS) and the current flight risk assessment level is: High Risk
Orbit Information
数据来源 国际轨道数据
星历时间: 2026-09-12T12:00:02+0800
8小时前
查看轨道信息
半长轴: 6915.538km
偏心率: 0.0001848
轨道倾角: 97.285°
近地点辐角 70.317°
升交点赤经 9.434°
平近点角 28.584°
近地点: 536.123km
远地点: 538.679km
周期: 95.389分钟
每日圈数: 15.096068
Detailed Information
固有亮度:
5
最大亮度:
2.5
卫星平台:
Starlink v1.5
覆盖范围:
全球
运营商:
太空探索技术公司
运营商所在国:
美国
制造商(研发单位):
太空探索技术公司
制造商所在国:
美国
使用方式:
暂无
Satellite Introduction
星链(Starlink)计划是由太空探索技术公司(SpaceX)提出的一个巨型低轨卫星互联网星座项目,计划在2019年至2024年间在太空搭建由约1.2万颗卫星组成的“星链”网络,其中1584颗将部署在地球上空550千米处的近地轨道,并从2020年开始工作。该卫星仍在工作。
2D Orbit Map
3D Orbit Map
Orbit Altitude Analysis Chart
Orbit Inclination Analysis Chart
Orbit Comprehensive Analysis Chart
View Comprehensive Chart
Conjunction Data List
Event ID Objects TCA Miss Dist (km) Collision Risk Probability Collision Risk Index (CRI) Action
CDM_260912-141905-347406-675321
2026-09-12T
14:19:07+0000
0.485 km
远距离
1.246909E-4 高风险 0.77
CDM_260906-163605-347405-632221
2026-09-06T
16:36:14+0000
1.974 km
极远距离
2.728116E-6 低风险 0.44
Miss Distance Evolution Trend with All Objects
Collision Probability Evolution Trend with All Objects